Wind_Speed
7 8 7 5 4 4 5 5 7 7 8 8 9 10 10 11 11 12 13 13 14 16 16 16 13 12 8 5 8 3 3 6 10 9 10 11 12 11 11 7 12 17 20 18 16 23 18
9 9 8 7 7 6 6 5 6 7 8 9 9 10 11 12 13 14 16 17 17 17 17 14 10 8 5 9 1 2 6 9 10 11 15 13 11 12 10 15 15 9 14 16 18 21 17
9 7 9 8 8 8 7 7 7 8 9 10 10 12 12 13 14 15 16 17 18 17 16 11 8 5 9 13 5 5 8 11 10 13 17 18 16 10 6 6 7 9 13 13 15 15 18
9 9 9 8 10 10 9 9 9 9 10 11 11 12 13 14 15 17 18 19 16 15 14 9 6 5 5 12 9 11 10 13 14 14 20 20 12 13 15 3 2 1 3 6 10 13 17
11 10 9 9 10 10 10 10 10 10 11 11 12 13 13 14 15 17 18 17 16 12 8 7 4 6 6 4 4 9 11 8 12 13 12 15 11 7 2 4 1 3 5 8 13 16 11
11 11 10 9 9 10 10 11 11 11 12 12 12 12 13 14 15 17 18 13 8 7 5 6 8 5 5 9 13 6 8 10 3 4 3 5 4 5 4 5 9 6 6 8 12 6 21
11 9 10 9 9 8 10 11 11 12 12 12 12 11 12 14 14 15 14 5 2 4 9 5 6 8 10 15 10 1 3 7 3 4 5 6 5 10 11 10 10 10 11 13 14 12 14
10 9 9 10 10 8 9 10 11 12 12 12 11 11 11 13 13 8 5 4 3 2 6 8 7 10 9 2 6 4 2 2 4 6 7 3 10 12 8 9 12 14 16 20 17 16 15
11 10 9 10 10 10 9 10 9 12 12 11 10 10 10 11 9 3 3 3 1 5 4 5 5 5 4 2 6 4 5 5 1 3 10 8 3 3 17 10 11 13 15 14 13 15 24
14 11 10 11 10 10 10 9 8 10 11 11 10 8 9 9 4 3 1 1 2 5 2 5 3 1 3 4 5 5 6 3 1 3 6 6 5 9 11 8 10 9 17 22 15 16 7
17 15 13 12 12 10 8 7 8 9 10 11 9 7 6 3 4 3 1 2 2 4 3 6 2 1 5 7 8 6 7 4 5 4 3 2 3 6 11 8 12 9 5 12 14 12 6
20 18 14 14 12 10 8 7 9 8 8 8 7 5 4 1 1 2 1 1 1 1 3 5 1 5 7 4 4 4 5 4 0 5 8 4 3 3 3 8 15 13 6 3 3 7 6
23 21 17 14 13 10 8 8 8 8 7 7 7 4 4 1 3 1 0 3 2 2 3 5 3 4 10 5 6 3 4 5 3 5 2 3 4 2 2 4 10 12 9 2 3 1 4
27 22 19 16 14 12 9 7 7 7 6 5 3 3 2 2 2 1 3 2 2 2 3 2 3 8 5 6 3 4 4 4 5 4 3 3 1 2 8 6 4 6 3 1 2 4 3
31 25 20 18 15 12 9 8 6 6 5 2 3 3 3 1 2 1 3 2 3 2 1 5 8 4 5 3 2 5 8 3 2 5 4 4 3 4 3 3 4 1 3 4 4 2 3
30 31 23 19 17 14 10 9 6 5 6 4 2 5 5 3 3 2 3 4 2 1 1 2 4 1 6 5 2 4 3 4 5 3 4 4 4 1 2 2 3 2 5 3 3 4 5
30 32 27 22 19 16 13 9 7 5 4 6 2 3 2 4 3 3 3 4 2 5 3 2 5 5 8 7 5 7 3 1 5 5 5 6 4 3 2 2 3 2 1 2 1 1 1
30 31 31 25 22 18 15 11 8 4 1 6 3 2 5 4 3 4 3 3 2 4 5 4 3 7 7 8 6 4 4 5 5 5 5 2 4 3 0 3 2 2 2 2 1 5 4
33 33 34 29 23 20 16 12 10 6 5 3 2 3 2 3 3 5 4 3 4 4 5 3 4 5 6 4 4 5 4 4 3 3 5 6 3 3 2 1 2 2 3 3 5 5 4
39 35 34 33 26 22 18 13 11 9 6 4 2 2 2 3 4 4 5 6 6 5 5 4 7 6 6 7 7 5 6 1 1 2 1 3 4 2 2 7 3 1 4 2 4 2 7
40 36 33 33 29 25 22 16 12 11 9 5 3 3 2 3 6 9 5 6 5 4 4 2 4 8 8 4 7 6 4 4 4 2 3 1 3 5 5 6 3 3 2 4 3 6 3
37 36 33 32 32 28 23 19 14 12 11 6 2 2 2 4 1 5 6 4 6 6 2 5 6 8 4 6 7 4 5 3 3 3 2 1 3 4 4 4 5 4 5 5 3 5 6
39 40 33 32 30 30 25 22 16 14 16 8 2 1 0 3 5 4 5 7 1 1 3 4 4 5 7 3 5 5 4 4 3 4 2 2 2 3 3 2 5 6 7 7 4 5 3
11 45 37 32 29 29 28 24 20 14 23 3 2 1 2 4 5 5 2 1 3 6 3 2 2 4 1 4 6 5 7 6 6 6 3 2 2 1 4 3 2 6 3 4 10 6 8
16 21 30 27 25 27 29 26 22 17 16 16 4 2 2 4 4 5 6 5 2 3 2 2 2 3 3 3 3 3 3 3 5 2 4 3 3 2 1 3 8 3 1 3 5 3 2
14 14 1 25 26 28 31 28 25 20 15 15 9 9 1 3 2 2 2 4 4 5 3 3 2 2 1 2 1 2 2 2 2 3 2 3 3 0 2 3 3 2 2 2 1 1 4
14 16 19 5 33 29 30 30 28 24 17 15 5 13 1 3 2 2 2 1 2 3 2 3 4 2 1 1 2 3 2 1 2 3 3 2 2 5 5 3 6 2 3 1 4 2 2
13 12 15 14 17 31 31 32 28 25 20 17 4 11 4 3 1 2 1 2 1 2 2 2 3 1 1 1 1 1 1 0 2 2 3 5 4 4 3 3 6 3 2 1 3 2 3
14 12 14 17 14 36 32 34 30 27 23 17 4 7 14 3 3 1 3 4 2 3 1 2 0 2 2 2 1 1 2 1 2 2 3 2 3 2 4 5 0 6 2 2 3 4 2
Wind_Direction
287 298 310 311 297 324 322 332 336 336 333 330 328 327 321 319 319 316 314 313 315 319 319 316 310 320 333 256 273 201 359 330 320 278 258 238 240 237 240 248 248 242 252 259 265 262 270
283 287 292 297 298 297 309 313 321 321 323 323 320 319 319 320 316 311 308 305 304 310 315 313 301 314 283 271 137 148 319 323 309 281 266 249 235 235 273 244 261 275 251 258 273 275 254
282 281 282 287 293 295 297 302 308 313 315 315 317 317 316 316 312 307 306 300 298 306 309 304 287 300 280 262 272 282 294 288 284 280 271 254 246 227 206 243 270 270 268 278 270 273 278
282 278 280 280 288 293 293 296 299 303 306 311 313 313 316 316 314 308 304 300 302 304 300 290 278 289 255 284 262 289 292 287 284 270 262 257 251 245 234 318 180 317 293 264 256 269 278
287 281 276 279 285 290 293 295 298 298 302 307 311 313 316 319 318 314 305 304 306 304 276 280 246 212 272 253 243 324 311 277 293 273 259 239 223 216 203 196 122 168 246 233 264 235 253
283 288 285 281 286 290 293 296 297 299 300 303 305 312 317 321 322 318 312 317 315 276 253 222 245 276 226 302 336 314 323 311 272 274 85 234 217 196 212 179 218 199 218 238 242 226 224
275 272 290 288 280 286 295 297 298 299 300 301 305 311 317 322 322 319 335 354 237 200 232 259 306 276 294 316 304 140 350 331 234 211 204 203 206 212 207 212 256 294 290 269 258 257 255
287 268 275 281 305 294 295 299 301 303 304 301 306 313 320 320 320 331 343 324 52 324 302 280 253 267 280 345 297 175 97 355 301 204 200 186 239 230 234 227 243 240 246 246 277 265 267
255 266 272 285 299 295 291 293 298 305 304 302 306 313 317 321 325 338 342 40 331 317 267 285 260 284 305 322 277 301 188 157 227 274 231 232 193 327 244 217 227 231 236 247 247 277 238
241 258 269 274 286 288 288 295 306 309 307 305 305 308 315 322 346 327 102 293 324 303 327 282 199 178 269 260 263 202 194 243 227 234 244 258 224 242 217 216 203 251 246 236 217 205 184
243 241 258 267 278 286 285 297 308 309 311 307 303 304 303 320 311 292 57 322 322 260 335 278 5 94 257 272 299 195 192 203 303 260 194 258 238 246 239 225 188 236 336 187 243 197 191
240 241 242 260 269 280 277 290 304 311 317 311 308 292 294 7 215 292 11 310 269 261 279 324 331 323 306 295 289 277 219 210 268 282 234 277 198 238 282 262 200 256 295 52 259 235 195
237 239 235 245 261 274 267 282 301 313 319 311 311 257 210 323 11 338 341 237 295 284 44 309 313 330 316 294 313 296 309 282 278 317 7 278 308 278 271 268 216 248 272 197 168 71 205
233 233 234 235 249 264 263 271 294 308 320 312 296 190 232 213 297 166 252 252 285 252 246 130 223 294 284 339 333 287 268 267 171 249 295 299 302 217 198 223 309 208 224 153 201 169 189
232 230 230 230 237 248 254 260 288 305 311 309 129 133 203 179 166 155 261 270 215 264 8 318 303 262 292 205 222 311 262 327 12 7 354 335 347 189 244 325 326 186 37 3 330 44 106
233 229 226 225 229 238 241 252 273 299 300 225 226 196 140 229 158 238 255 251 248 207 275 238 283 317 326 358 211 279 330 74 357 24 358 295 309 7 342 277 209 359 102 292 285 181 209
230 227 224 221 225 231 231 246 255 290 308 171 212 228 103 159 136 229 242 252 302 183 223 257 312 299 325 346 319 306 300 49 26 339 311 283 216 284 263 37 27 1 315 272 209 126 294
228 227 220 220 221 225 225 238 236 260 195 184 270 234 139 146 222 233 234 230 355 244 186 262 270 266 273 328 307 312 334 349 21 314 304 76 297 282 54 151 172 231 109 70 288 336 269
226 224 220 216 216 220 224 229 229 231 214 274 235 109 126 195 233 217 214 240 243 223 212 222 250 233 315 297 317 330 353 94 356 312 360 344 290 313 279 236 197 241 148 206 249 272 262
221 218 220 214 212 216 219 222 227 212 225 213 278 195 134 214 273 279 291 262 222 176 280 249 270 295 275 268 247 269 301 99 63 285 317 294 283 260 241 258 291 167 192 189 302 330 326
215 213 215 213 213 214 214 215 227 205 218 211 224 244 113 195 223 224 275 302 240 217 213 235 264 238 278 293 314 266 353 280 181 206 254 72 285 9 299 247 295 272 328 170 238 264 359
213 216 211 213 212 210 211 207 220 215 210 227 257 245 141 289 90 237 220 256 232 241 167 214 225 298 291 274 278 335 351 313 8 178 293 250 285 318 278 196 263 279 260 242 217 305 299
218 216 207 208 211 208 209 205 208 215 190 226 204 161 75 285 183 213 225 213 166 259 210 290 344 321 280 307 355 323 288 292 282 315 215 271 314 353 298 303 303 293 222 193 164 216 218
246 211 205 203 206 208 210 205 204 224 205 297 343 347 193 262 204 213 212 279 248 222 273 114 237 256 76 300 296 263 252 242 249 232 248 280 238 238 273 326 269 243 61 103 190 213 225
23 207 196 200 207 210 210 207 204 215 217 218 267 229 257 270 268 246 234 234 185 146 230 264 138 44 324 301 309 284 223 241 223 196 241 212 302 277 189 259 272 244 261 142 154 236 327
15 12 79 209 212 211 211 209 203 206 213 207 235 234 337 311 246 27 328 199 235 201 143 164 100 342 276 271 280 271 275 347 216 195 215 290 262 271 304 262 278 308 97 10 3 224 20
341 358 7 215 213 211 209 206 204 201 206 201 221 215 179 254 277 23 235 222 189 322 84 130 160 155 355 237 253 241 282 66 281 244 169 187 216 205 252 272 300 338 112 257 130 196 62
347 336 328 339 233 210 208 205 202 199 202 197 204 219 179 262 280 42 324 256 145 279 271 146 100 266 144 218 248 282 263 212 317 200 181 179 178 201 201 218 277 154 49 58 186 54 63
349 343 342 334 262 207 206 204 201 199 200 197 198 216 209 256 299 276 248 247 221 141 331 175 304 157 207 213 250 333 276 196 289 277 1 279 201 208 189 218 124 189 60 58 46 114 79
Height
845 844 844 842 841 841 839 838 837 835 834 834 833 832 831 829 827 826 825 823 822 820 819 817 815 814 812 809 803 801 801 801 801 801 801 799 801 801 800 793 793 794 788 784 777 772 772
843 843 843 842 841 840 838 836 835 834 833 832 831 830 829 827 826 824 823 821 820 818 816 814 814 813 813 810 802 802 801 800 800 800 798 796 795 796 794 791 794 785 784 787 782 778 769
841 840 841 841 841 839 837 835 834 833 832 831 829 828 826 825 823 822 820 818 817 814 813 812 812 812 810 807 802 801 800 799 798 798 795 793 793 794 791 794 788 788 790 787 783 780 773
840 840 840 839 839 838 836 834 833 831 830 828 828 826 824 822 821 819 816 814 812 810 809 810 810 811 807 801 800 799 798 795 794 793 793 791 791 791 790 789 791 792 792 794 780 782 778
840 838 837 836 836 836 835 833 831 829 827 826 825 824 822 820 818 815 812 809 808 807 807 808 809 808 802 798 798 796 794 793 791 789 787 788 789 786 789 794 800 800 800 791 784 779 785
837 837 836 834 833 833 832 831 830 827 825 824 822 821 820 817 815 812 809 805 804 805 805 806 806 809 799 796 794 793 792 790 789 787 787 789 789 789 789 793 794 790 793 784 782 776 779
833 833 833 832 830 830 830 829 828 826 824 822 820 818 817 815 813 811 807 804 806 807 803 799 799 798 796 795 792 791 790 789 789 787 786 785 787 785 786 785 784 783 784 779 771 768 787
831 830 829 830 829 828 827 826 826 824 822 820 818 816 814 813 811 809 808 806 809 812 806 795 797 796 793 794 792 790 790 790 787 783 781 789 784 777 777 777 781 783 786 779 767 766 776
827 828 827 826 826 826 825 823 822 822 820 818 816 814 812 811 809 809 808 809 809 810 806 796 793 793 793 794 789 784 789 789 791 787 779 782 775 780 777 780 784 784 782 771 770 759 761
823 824 825 824 823 824 823 821 819 818 818 816 814 811 811 810 811 808 807 809 809 810 813 809 790 792 791 789 787 779 783 786 790 784 787 786 777 776 774 777 781 773 758 759 762 753 760
819 820 822 822 822 820 820 819 817 816 814 814 812 810 810 808 809 808 810 809 809 810 802 797 789 790 788 789 784 777 777 778 776 780 784 775 774 773 767 766 772 765 741 745 749 740 745
815 816 816 819 819 818 817 817 816 814 812 811 810 809 809 809 809 810 809 809 810 810 794 805 788 789 784 777 775 772 772 776 773 773 768 768 772 772 764 754 758 750 745 748 749 744 761
810 811 812 814 816 816 815 815 813 812 809 808 807 807 808 808 809 809 809 809 809 798 790 791 789 787 783 776 774 772 773 774 772 774 768 767 767 760 763 756 751 752 755 755 763 772 764
804 806 808 809 811 813 813 812 811 809 807 806 805 806 807 808 809 809 810 807 807 789 784 779 785 782 782 775 771 772 770 768 762 764 768 765 759 756 749 752 744 744 741 759 757 760 759
797 801 803 804 807 808 809 810 808 807 806 804 804 805 807 808 808 809 809 802 793 782 782 781 777 782 776 773 776 770 764 760 757 759 769 764 758 744 743 740 742 736 752 741 749 744 757
790 795 797 799 802 804 806 807 806 804 804 803 804 804 804 806 808 809 805 795 783 779 781 780 782 768 773 766 773 764 757 758 758 755 757 757 762 744 739 737 736 739 744 757 755 757 748
783 788 792 794 797 800 801 803 803 802 801 802 803 799 806 806 808 807 801 787 778 777 779 781 777 774 770 767 766 764 760 756 758 758 756 757 754 751 744 746 751 745 747 744 744 744 755
775 780 785 788 791 795 796 799 801 800 799 802 798 798 805 807 806 796 792 778 782 776 778 780 778 776 773 770 767 763 762 759 760 760 761 753 759 757 747 742 743 745 741 747 754 750 751
766 773 777 782 785 789 792 795 797 798 798 799 794 796 805 806 796 788 778 779 778 775 776 775 775 770 769 771 774 761 760 760 760 760 763 759 756 765 752 750 745 744 741 742 743 742 737
757 763 769 775 779 783 787 790 793 794 797 799 793 793 803 805 796 790 781 773 774 773 774 771 771 770 771 769 763 766 763 758 761 760 763 764 756 756 767 767 757 744 742 738 740 754 738
747 757 762 768 773 777 781 784 790 790 795 798 790 783 779 787 783 782 777 773 773 772 774 771 771 770 770 770 763 760 758 759 760 759 761 761 764 762 756 750 750 749 743 740 742 741 743
740 749 754 760 765 770 776 779 784 788 793 796 784 782 782 779 772 776 776 773 770 767 768 770 773 767 767 771 768 769 766 761 759 759 757 758 766 757 759 750 752 752 743 738 739 739 739
733 740 746 752 758 764 770 774 779 784 789 788 781 780 781 773 772 774 770 767 765 765 765 767 769 771 769 768 770 769 768 767 766 767 758 761 763 769 759 749 751 754 738 737 737 735 733
727 726 737 746 751 757 764 768 774 779 783 784 781 780 779 773 769 765 763 764 765 768 769 768 770 770 775 772 770 769 767 765 764 764 764 760 762 769 770 755 768 728 731 730 731 729 730
729 721 727 737 744 753 758 764 769 775 780 782 782 781 777 773 765 760 761 765 765 769 771 771 770 774 773 772 774 767 766 764 760 760 763 763 764 768 775 761 739 726 731 732 730 729 728
731 728 726 731 742 749 754 760 765 771 776 779 779 782 779 778 764 757 761 761 768 766 772 771 776 775 774 772 772 768 762 754 764 766 765 765 766 772 762 759 747 728 732 731 729 736 733
732 728 729 732 738 745 750 755 761 766 771 775 776 778 777 778 764 762 764 765 762 762 765 770 775 777 775 773 771 770 764 760 763 754 770 771 766 772 772 764 746 732 735 733 737 743 736
734 733 734 732 732 738 744 750 756 761 767 771 773 774 775 773 765 764 765 764 765 767 763 772 774 776 779 776 769 763 768 763 763 749 753 762 767 768 762 756 767 737 738 735 740 739 738
737 734 734 731 727 730 738 745 751 756 762 767 770 771 774 776 769 766 766 767 767 768 769 768 768 765 765 770 768 767 769 763 760 756 756 766 751 751 748 747 735 737 735 735 736 739 741